Regional Weather Roundup
Issued by NWS Charleston, SC

Current Version | Previous Version | Graphics & Text | Print | Product List | Glossary On
Versions: 1 2 3 4 5 6 7 8 9 10 11 12 13 14 15 16 17 18 19 20 21 22 23 24 25 26 27 28 29 30 31 32 33 34 35 36 37 38 39 40 41 42 43 44 45 46 47 48 49 50
000 ASUS42 KCHS 251625 RWRCHS REGIONAL WEATHER ROUNDUP NATIONAL WEATHER SERVICE CHARLESTON SC 1200 PM EDT FRI JUL 25 2014 NOTE: "FAIR" INDICATES FEW OR NO CLOUDS BELOW 12,000 FEET WITH NO SIGNIFICANT WEATHER AND/OR OBSTRUCTIONS TO VISIBILITY. NOT ALL STATIONS ARE QUALITY CONTROLLED BY THE NATIONAL WEATHER SERVICE. USE DATA WITH CAUTION...ESPECIALLY DEWPOINT OBSERVATIONS. SCZ027-030-031-034>040-042>050-251700- ...SOUTH CAROLINA... CITY SKY/WX TMP DP RH WIND PRES REMARKS N CHARLESTON MOSUNNY 90 74 59 VRB7 30.02F HX 99 WATERFRONT PRK N/A 86 N/A N/A S6 N/A FORT JOHNSON NOT AVBL MOUNT PLEASANT FAIR 90 73 58 SW6 30.02S HX 98 JOHNS ISLAND MOSUNNY 90 70 51 CALM 30.03S HX 95 PINOPOLIS N/A 86 75 70 N5 29.96R HX 95 MONCKS CORNER N/A 90 77 66 CALM 30.02S HX 102 SUMMERVILLE FAIR 90 75 62 W5 30.03S HX 100 BEAUFORT MCAS MOSUNNY 90 74 59 VRB5 30.03S HX 99 BEAUFORT ARPT FAIR 88 77 70 SW6 30.02F HX 100 HILTON HEAD IS MOSUNNY 88 73 62 S6 30.04 HX 96 GEORGETOWN NOT AVBL WALTERBORO PTSUNNY 90 68 48 CALM 30.02F HX 93 ORANGEBURG MOSUNNY 87 72 60 VRB5 30.03S HX 93 BARNWELL FAIR 90 72 55 SW9 30.02F HX 96 AIKEN CLOUDY 86 77 74 SW3 30.06F HX 97 MANNING PTSUNNY 86 79 79 N7 30.02F HX 99 KINGSTREE NOT AVBL COLUMBIA PTSUNNY 84 71 65 VRB6 30.03F SUMTER CLOUDY 77 73 87 E3 30.04S FLORENCE CLOUDY 76 70 82 E7 30.05S MYRTLE BEACH CLOUDY 82 73 74 NE7 30.04R N MYRTLE BEACH CLOUDY 79 72 79 NE6 30.05R HAZE $$ GAZ063-065-086>088-099>101-113>116-118-119-134-136>141-150-251700- ...GEORGIA... CITY SKY/WX TMP DP RH WIND PRES REMARKS SAVANNAH ARPT MOSUNNY 90 73 57 W8 30.04S HX 98 HUNTER AAF SUNNY 89 74 61 W8 30.02F HX 99 FORT STEWART MOSUNNY 89 73 59 VRB7 30.03F HX 96 STATESBORO NOT AVBL SYLVANIA MOSUNNY 89 77 69 SW6 30.04S HX 101 CLAXTON PTSUNNY 90 77 66 SW5 30.03F HX 102 THOMSON MOSUNNY 86 78 76 SW3 30.07F HX 98 AUGUSTA-BUSH PTSUNNY 88 71 57 W7 30.02S HX 94 AUGUSTA-DANIEL PTSUNNY 86 72 62 VRB3 30.04F HX 92 SWAINSBORO PTSUNNY 88 77 70 W3 30.04F HX 100 VIDALIA N/A 88 73 62 SW9 30.05S HX 96 ALMA PTSUNNY 88 70 55 VRB6 30.05F HX 93 WAYCROSS SUNNY 92 75 57 W8 30.05F HX 104 JESUP NOT AVBL BRUNSWICK MOSUNNY 90 70 51 SW8 30.06S HX 95 SAINT SIMONS MOSUNNY 88 72 58 W7 30.05F HX 94 $$ SCZ027-028-034-036>038-045-046-048>050-GAZ119-141-251700- ...LAKE AND SUPPLEMENTAL COASTAL OBSERVATIONS... STATION/POSITION TIME TEMP WIND PRES WAVE SWELL AIR SEA DIR/SP/G HT/PER HT/PER/DIR (UTC) (F) (DEG/KT/KT) (MB) (FT/S) (FT/S/D) UPR LAKE MARION NOT AVBL WINYAH BAY 1600 87 CALM 1016.0S LAKE MURRAY 1500 77 20/ 1/ 2 1016.9S ACE BASIN NERRS 1600 87 230/ 2 1017.0S FORT PULASKI 1600 87 240/ 6/ 9 1017.1F SAPELO ISLAND 1600 89 260/ 9 1018.0S $$ ANZ835-935-AMZ111-154-330-350-352-354-374-450-454-472-251700- ...C-MAN AND BUOY OBSERVATIONS... STATION/POSITION TIME TEMP WIND PRES WAVE SWELL AIR SEA DIR/SP/G HT/PER HT/PER/DIR (UTC) (F) (DEG/KT/KT) (MB) (FT/S) (FT/S/D) FOLLY BEACH CMAN 1600 85 200/ 7/ 9 1017.2F BUOY 41004 1600 82 82 240/ 10/ 12 1016.3F 3/ 5 3/ 5 BUOY 41008 1600 83 85 250/ 12/ 14 1017.6S 2/ 5 2/120/ 8 5E ST. MARYS GA 1600 85 N/A 2/ 8 FRYING PAN BUOY NOT AVBL BUOY 41025 1600 VRB 6/ 8 1017.6R 3/ 8 2/140/ 8 CAPE LOOKOUT NC 1600 76 40/ 11/ 12 1017.4F BUOY 41002 1515 73 82 290/ 10/ 14 1021.7R 5/ 7 5/240/ 7 BUOY 41010 1600 83 84 230/ 8/ 10 1019.8R 3/ 8 2/120/ 8 BUOY 41012 NOT AVBL ST AUGUSTINE FL 1600 89 260/ 3/ 6 1019.1F CAPERS NEARSHORE 1500 83 230/ 8/ 10 N/A FRIPP NEARSHORE NOT AVBL $$

USA.gov is the U.S. government's official web portal to all federal, state and local government web resources and services.